When you browse on this site, cookies collect data to enhance your experience and personalize the content and advertising you see.
Visit our Privacy Policy to learn more. By continuing to use the site, you agree to this use of cookies and data.
  • In Hungary
  • List of Countries
  • For 7 days
  • Water Temperature
  • Weather Map
  • News
  • Weather Widgets
  • user-avatar
    Login

    Hourly Weather Progress

    Today, 21 October, Monday

    Time Temperature Precipitation Wind Pressure Humidity
    00:00 +13°C° 0 mm 3 mps 759 mmHg 62%
    01:00 +13°C° 0 mm 3 mps 759 mmHg 64%
    02:00 +12°C° 0 mm 3 mps 759 mmHg 67%
    03:00 +12°C° 0 mm 3 mps 759 mmHg 71%
    04:00 +11°C° 0 mm 3 mps 759 mmHg 74%
    05:00 +11°C° 0 mm 3 mps 760 mmHg 78%
    06:00 +11°C° 0 mm 3 mps 760 mmHg 82%
    07:00 +12°C° 0 mm 4 mps 760 mmHg 78%
    08:00 +13°C° 0 mm 4 mps 760 mmHg 74%
    09:00 +15°C° 0 mm 5 mps 760 mmHg 69%
    10:00 +16°C° 0 mm 5 mps 760 mmHg 63%
    11:00 +17°C° 0 mm 5 mps 760 mmHg 57%
    12:00 +19°C° 0 mm 5 mps 760 mmHg 51%
    13:00 +19°C° 0 mm 5 mps 759 mmHg 49%
    14:00 +20°C° 0 mm 5 mps 759 mmHg 46%
    15:00 +20°C° 0 mm 5 mps 759 mmHg 44%
    16:00 +19°C° 0 mm 4 mps 759 mmHg 48%
    17:00 +17°C° 0 mm 4 mps 759 mmHg 53%
    18:00 +16°C° 0 mm 3 mps 759 mmHg 57%
    19:00 +14°C° 0 mm 4 mps 759 mmHg 61%
    20:00 +14°C° 0 mm 4 mps 759 mmHg 65%
    21:00 +13°C° 0 mm 5 mps 759 mmHg 68%
    22:00 +12°C° 0 mm 4 mps 759 mmHg 74%
    23:00 +12°C° 0 mm 4 mps 759 mmHg 79%

    Tomorrow, 22 October, Tuesday

    Time Temperature Precipitation Wind Pressure Humidity
    00:00 +11°C° 0 mm 3 mps 759 mmHg 84%
    01:00 +11°C° 0 mm 3 mps 758 mmHg 88%
    02:00 +10°C° 0 mm 3 mps 758 mmHg 91%
    03:00 +10°C° 0 mm 3 mps 758 mmHg 94%
    04:00 +9°C° 0 mm 3 mps 758 mmHg 94%
    05:00 +9°C° 0 mm 3 mps 758 mmHg 95%
    06:00 +9°C° 0 mm 3 mps 759 mmHg 95%
    07:00 +10°C° 0 mm 3 mps 759 mmHg 89%
    08:00 +12°C° 0 mm 3 mps 759 mmHg 82%
    09:00 +13°C° 0 mm 4 mps 759 mmHg 76%
    10:00 +14°C° 0 mm 4 mps 758 mmHg 67%
    11:00 +17°C° 0 mm 4 mps 758 mmHg 59%
    12:00 +19°C° 0 mm 4 mps 758 mmHg 50%
    13:00 +19°C° 0 mm 4 mps 758 mmHg 48%
    14:00 +19°C° 0 mm 4 mps 758 mmHg 46%
    15:00 +20°C° 0 mm 4 mps 758 mmHg 44%
    16:00 +18°C° 0 mm 3 mps 758 mmHg 48%
    17:00 +17°C° 0 mm 3 mps 758 mmHg 51%
    18:00 +16°C° 0 mm 2 mps 758 mmHg 55%
    19:00 +14°C° 0 mm 3 mps 758 mmHg 57%
    20:00 +14°C° 0 mm 3 mps 758 mmHg 59%
    21:00 +13°C° 0 mm 3 mps 758 mmHg 61%
    22:00 +12°C° 0 mm 3 mps 758 mmHg 64%
    23:00 +12°C° 0 mm 3 mps 758 mmHg 67%

    Day after tomorrow, 23 October, Wednesday

    Time Temperature Precipitation Wind Pressure Humidity
    00:00 +11°C° 0 mm 3 mps 758 mmHg 71%
    01:00 +12°C° 0 mm 2 mps 758 mmHg 73%
    02:00 +10°C° 0 mm 2 mps 758 mmHg 75%
    03:00 +10°C° 0 mm 2 mps 758 mmHg 78%
    04:00 +11°C° 0 mm 1 mps 758 mmHg 79%
    05:00 +10°C° 0 mm 1 mps 758 mmHg 80%
    06:00 +10°C° 0 mm 1 mps 758 mmHg 82%
    07:00 +10°C° 0 mm 2 mps 758 mmHg 75%
    08:00 +13°C° 0 mm 2 mps 758 mmHg 68%
    09:00 +14°C° 0 mm 2 mps 758 mmHg 61%
    10:00 +16°C° 0 mm 3 mps 758 mmHg 54%
    11:00 +17°C° 0 mm 3 mps 758 mmHg 47%
    12:00 +18°C° 0 mm 3 mps 758 mmHg 40%
    13:00 +19°C° 0 mm 3 mps 757 mmHg 39%
    14:00 +19°C° 0 mm 4 mps 757 mmHg 38%
    15:00 +19°C° 0 mm 4 mps 757 mmHg 37%
    16:00 +18°C° 0 mm 3 mps 757 mmHg 41%
    17:00 +17°C° 0 mm 3 mps 757 mmHg 45%
    18:00 +14°C° 0 mm 3 mps 757 mmHg 49%
    19:00 +14°C° 0 mm 3 mps 757 mmHg 51%
    20:00 +13°C° 0 mm 3 mps 758 mmHg 53%
    21:00 +12°C° 0 mm 3 mps 758 mmHg 54%
    22:00 +12°C° 0 mm 3 mps 757 mmHg 57%
    23:00 +11°C° 0 mm 3 mps 757 mmHg 60%

    24 October, Thursday

    Time Temperature Precipitation Wind Pressure Humidity
    00:00 +11°C° 0 mm 3 mps 757 mmHg 62%
    01:00 +10°C° 0 mm 2 mps 757 mmHg 65%
    02:00 +10°C° 0 mm 2 mps 757 mmHg 68%
    03:00 +9°C° 0 mm 2 mps 757 mmHg 71%
    04:00 +9°C° 0 mm 2 mps 757 mmHg 74%
    05:00 +8°C° 0 mm 2 mps 757 mmHg 77%
    06:00 +8°C° 0 mm 2 mps 757 mmHg 80%
    07:00 +9°C° 0 mm 2 mps 757 mmHg 75%
    08:00 +11°C° 0 mm 3 mps 757 mmHg 71%
    09:00 +12°C° 0 mm 3 mps 758 mmHg 66%
    10:00 +14°C° 0 mm 3 mps 757 mmHg 58%
    11:00 +15°C° 0 mm 4 mps 757 mmHg 50%
    12:00 +18°C° 0 mm 4 mps 757 mmHg 43%
    13:00 +18°C° 0 mm 4 mps 757 mmHg 41%
    14:00 +19°C° 0 mm 4 mps 757 mmHg 40%
    15:00 +19°C° 0 mm 4 mps 756 mmHg 38%
    16:00 +18°C° 0 mm 4 mps 756 mmHg 44%
    17:00 +16°C° 0 mm 3 mps 756 mmHg 49%
    18:00 +14°C° 0 mm 3 mps 756 mmHg 54%
    19:00 +13°C° 0 mm 3 mps 756 mmHg 57%
    20:00 +13°C° 0 mm 3 mps 756 mmHg 60%
    21:00 +12°C° 0 mm 3 mps 757 mmHg 63%
    22:00 +11°C° 0 mm 3 mps 756 mmHg 69%
    23:00 +11°C° 0 mm 3 mps 756 mmHg 74%

    25 October, Friday

    Time Temperature Precipitation Wind Pressure Humidity
    00:00 +10°C° 0 mm 3 mps 756 mmHg 80%
    01:00 +10°C° 0 mm 3 mps 756 mmHg 83%
    02:00 +10°C° 0 mm 3 mps 756 mmHg 86%
    03:00 +9°C° 0 mm 3 mps 756 mmHg 89%
    04:00 +9°C° 0 mm 3 mps 756 mmHg 89%
    05:00 +9°C° 0 mm 2 mps 756 mmHg 90%
    06:00 +8°C° 0 mm 2 mps 756 mmHg 90%
    07:00 +10°C° 0 mm 3 mps 756 mmHg 84%
    08:00 +11°C° 0 mm 3 mps 756 mmHg 78%
    09:00 +13°C° 0 mm 3 mps 756 mmHg 72%
    10:00 +14°C° 0 mm 3 mps 756 mmHg 64%
    11:00 +17°C° 0 mm 4 mps 756 mmHg 55%
    12:00 +19°C° 0 mm 4 mps 756 mmHg 46%
    13:00 +19°C° 0 mm 4 mps 756 mmHg 45%
    14:00 +19°C° 0 mm 4 mps 756 mmHg 43%
    15:00 +20°C° 0 mm 4 mps 756 mmHg 42%
    16:00 +18°C° 0 mm 4 mps 756 mmHg 47%
    17:00 +17°C° 0 mm 3 mps 756 mmHg 52%
    18:00 +16°C° 0 mm 3 mps 756 mmHg 57%
    19:00 +16°C° 0 mm 3 mps 756 mmHg 62%
    20:00 +16°C° 0 mm 2 mps 756 mmHg 67%
    21:00 +16°C° 0 mm 2 mps 756 mmHg 72%
    22:00 +16°C° 0 mm 3 mps 756 mmHg 76%
    23:00 +14°C° 0 mm 4 mps 756 mmHg 79%

    26 October, Saturday

    Time Temperature Precipitation Wind Pressure Humidity
    00:00 +14°C° 0 mm 4 mps 756 mmHg 82%
    01:00 +13°C° 0 mm 4 mps 756 mmHg 86%
    02:00 +12°C° 0 mm 3 mps 756 mmHg 89%
    03:00 +12°C° 0 mm 3 mps 756 mmHg 92%
    04:00 +11°C° 0 mm 3 mps 756 mmHg 92%
    05:00 +11°C° 0 mm 3 mps 756 mmHg 91%
    06:00 +11°C° 0 mm 3 mps 756 mmHg 91%
    07:00 +12°C° 0 mm 3 mps 756 mmHg 84%
    08:00 +13°C° 0 mm 4 mps 756 mmHg 77%
    09:00 +14°C° 0 mm 4 mps 756 mmHg 70%
    10:00 +17°C° 0 mm 4 mps 756 mmHg 61%
    11:00 +19°C° 0 mm 4 mps 756 mmHg 52%
    12:00 +20°C° 0 mm 5 mps 756 mmHg 43%
    13:00 +21°C° 0 mm 5 mps 756 mmHg 41%
    14:00 +21°C° 0 mm 5 mps 756 mmHg 38%
    15:00 +22°C° 0 mm 5 mps 756 mmHg 36%
    16:00 +20°C° 0 mm 4 mps 756 mmHg 40%
    17:00 +19°C° 0 mm 3 mps 756 mmHg 45%
    18:00 +17°C° 0 mm 3 mps 756 mmHg 49%
    19:00 +17°C° 0 mm 3 mps 756 mmHg 53%
    20:00 +16°C° 0 mm 3 mps 756 mmHg 57%
    21:00 +14°C° 0 mm 3 mps 756 mmHg 61%
    22:00 +14°C° 0 mm 3 mps 756 mmHg 66%
    23:00 +13°C° 0 mm 3 mps 756 mmHg 70%

    27 October, Sunday

    Time Temperature Precipitation Wind Pressure Humidity
    00:00 +13°C° 0 mm 3 mps 756 mmHg 75%
    01:00 +13°C° 0 mm 3 mps 756 mmHg 79%
    02:00 +12°C° 0 mm 3 mps 756 mmHg 82%
    03:00 +13°C° 0 mm 2 mps 756 mmHg 86%
    04:00 +12°C° 0 mm 3 mps 756 mmHg 86%
    05:00 +12°C° 0 mm 3 mps 756 mmHg 87%
    06:00 +13°C° 0 mm 3 mps 756 mmHg 88%
    07:00 +13°C° 0 mm 3 mps 756 mmHg 85%
    08:00 +14°C° 0 mm 3 mps 756 mmHg 82%
    09:00 +16°C° 0 mm 3 mps 756 mmHg 79%
    10:00 +17°C° 0 mm 4 mps 756 mmHg 69%
    11:00 +19°C° 0 mm 4 mps 756 mmHg 60%
    12:00 +21°C° 0 mm 5 mps 756 mmHg 50%
    13:00 +21°C° 0 mm 5 mps 755 mmHg 45%
    14:00 +22°C° 0 mm 5 mps 755 mmHg 39%
    15:00 +22°C° 0 mm 6 mps 755 mmHg 33%
    16:00 +21°C° 0 mm 5 mps 755 mmHg 35%
    17:00 +19°C° 0 mm 4 mps 755 mmHg 38%
    18:00 +18°C° 0 mm 4 mps 755 mmHg 40%
    19:00 +17°C° 0 mm 4 mps 754 mmHg 42%
    20:00 +15°C° 0 mm 4 mps 754 mmHg 45%
    21:00 +15°C° 0 mm 5 mps 754 mmHg 47%
    22:00 +14°C° 0 mm 4 mps 754 mmHg 54%
    23:00 +13°C° 0 mm 4 mps 754 mmHg 60%
    Show more